This demonstration page uses our WeatherBlox Daily Observations layout. Learn more.

Left ArrowRight Arrow

39.01783, -85.05884

Hourly Observations for August 9, 2022

Temp ( °F °C ) Dew Point ( °F °C ) Humidity (%) Winds ( mph kmh ) Pressure ( in mb ) Visibility ( mi km ) Precip ( " mm )
12:52 am 00:52 Mostly Cloudy 79 26.1 74 23.3 85 85 SSW 8 13 29.98 1015 10 16 0.00 0.00
1:52 am 01:52 Mostly Cloudy 79 26.1 74 23.3 85 85 SW 7 11 29.98 1015 10 16 0.00 0.00
2:01 am 02:01 Cloudy with Nearby Thunderstorms 79 26.1 74 23.3 85 85 WSW 7 11 29.98 1015 10 16 0.00 0.00
2:16 am 02:16 Cloudy 79 26.1 73 22.8 82 82 WNW 10 17 29.99 1016 10 16 0.00 0.00
2:52 am 02:52 Partly Cloudy 77 25 72 22.2 84 84 Calm 29.97 1015 10 16 0.00 0.00
3:52 am 03:52 Mostly Clear 75 23.9 72 22.2 90 90 Calm 29.98 1015 10 16 0.00 0.00
4:52 am 04:52 Mostly Clear 73 22.8 71 21.7 94 94 Calm 29.98 1015 10 16 0.00 0.00
5:52 am 05:52 Mostly Cloudy 73 22.8 72 22.2 96 96 SSW 5 7 29.98 1015 9 14 0.00 0.00
6:52 am 06:52 Mostly Cloudy 74 23.3 73 22.8 97 97 Calm 29.99 1016 7 11 0.00 0.00
7:52 am 07:52 Partly Cloudy 75 23.9 74 23.3 96 96 S 5 7 30.00 1016 8 13 0.00 0.00
8:52 am 08:52 Mostly Cloudy 78 25.6 74 23.3 87 87 W 7 11 30.02 1017 8 13 0.00 0.00
9:31 am 09:31 Cloudy 78 25.6 74 23.3 87 87 WNW 7 11 30.03 1017 8 13 0.00 0.00
9:52 am 09:52 Mostly Cloudy 80 26.7 75 23.9 85 85 WNW 6 9 30.03 1017 8 13 0.00 0.00
10:52 am 10:52 Mostly Cloudy 81 27.2 75 23.9 82 82 VRB 6 9 30.02 1017 10 16 0.00 0.00
11:16 am 11:16 Mostly Cloudy 81 27.2 75 23.9 82 82 SW 5 7 30.01 1016 9 14 0.00 0.00
11:52 am 11:52 Mostly Cloudy 82 27.8 74 23.3 77 77 SW 8 13 30.03 1017 9 14 0.00 0.00
12:05 pm 12:05 Mostly Cloudy 82 27.8 75 23.9 79 79 WSW 8 13 30.01 1016 7 11 0.00 0.00
12:52 pm 12:52 Mostly Cloudy 84 28.9 74 23.3 72 72 WSW 7 11 30.03 1017 8 13 0.00 0.00
1:39 pm 13:39 Mostly Cloudy with Nearby Thunderstorms 85 29.4 74 23.3 70 70 WSW 9 15 30.01 1016 10 16 0.00 0.00
1:52 pm 13:52 Mostly Cloudy with Nearby Thunderstorms 86 30 73 22.8 65 65 W 14 22 30.02 1017 10 16 0.00 0.00
2:01 pm 14:01 Mostly Cloudy 85 29.4 74 23.3 70 70 WSW 10 17 30.00 1016 10 16 0.00 0.00
2:12 pm 14:12 Mostly Cloudy 83 28.3 72 22.2 70 70 WNW 14 22 30.00 1016 10 16 0.00 0.00
2:52 pm 14:52 Partly Cloudy 84 28.9 72 22.2 67 67 NW 7 11 30.01 1016 10 16 0.00 0.00
3:52 pm 15:52 Partly Cloudy 86 30 72 22.2 63 63 W 7 11 29.99 1016 10 16 0.00 0.00
4:52 pm 16:52 Partly Cloudy 85 29.4 72 22.2 65 65 WNW 6 9 29.98 1015 10 16 0.00 0.00
5:52 pm 17:52 Cloudy 82 27.8 72 22.2 72 72 NNW 14 22 29.98 1015 10 16 0.00 0.00
6:01 pm 18:01 Cloudy with Heavy Rain 79 26.1 75 23.9 88 88 N 13 20 29.98 1015 4 6 0.03 0.76
6:10 pm 18:10 Mostly Cloudy with Light Rain 79 26.1 74 23.3 85 85 N 10 17 29.98 1015 9 14 0.23 5.84
6:52 pm 18:52 Mostly Cloudy 80 26.7 74 23.3 82 82 N 9 15 29.98 1015 10 16 0.23 5.84
7:41 pm 19:41 Mostly Cloudy with Nearby Thunderstorms 80 26.7 73 22.8 79 79 NNW 7 11 29.98 1015 10 16 0.00 0.00
7:52 pm 19:52 Mostly Cloudy with Nearby Thunderstorms 80 26.7 73 22.8 79 79 N 6 9 29.99 1016 10 16 0.00 0.00
8:13 pm 20:13 Mostly Cloudy 79 26.1 73 22.8 82 82 N 7 11 29.99 1016 10 16 0.00 0.00
8:52 pm 20:52 Cloudy 76 24.4 72 22.2 88 88 S 7 11 30.02 1017 10 16 0.00 0.00
9:13 pm 21:13 Cloudy with Heavy Rain 75 23.9 73 22.8 94 94 S 9 15 30.04 1017 2 3 0.02 0.51
9:19 pm 21:19 Cloudy with Strong Thunderstorms 74 23.3 73 22.8 97 97 S 10 17 30.04 1017 2 2 0.08 2.03
9:35 pm 21:35 Cloudy with Strong Thunderstorms 74 23.3 73 22.8 97 97 S 9 15 30.05 1018 1 2 0.27 6.86
9:52 pm 21:52 Cloudy with Strong Thunderstorms 73 22.8 73 22.8 100 100 Calm 30.05 1018 2 2 0.69 17.53
10:00 pm 22:00 Cloudy with Strong Thunderstorms 73 22.8 73 22.8 100 100 NE 3 6 30.05 1018 3 4 0.12 3.05
10:08 pm 22:08 Cloudy with Thunderstorms 74 23.3 73 22.8 97 97 ENE 3 6 30.05 1018 4 6 0.14 3.56
10:52 pm 22:52 Mostly Cloudy with Rain 74 23.3 72 22.2 94 94 ESE 5 7 30.04 1017 4 6 0.16 4.06
11:52 pm 23:52 Mostly Cloudy with Light Rain 73 22.8 73 22.8 100 100 S 8 13 30.05 1018 6 10 0.08 2.03

Powered by AerisWeather